EVRAEETN

Guest
Details From EVRA - Riga Intl
To EETN - TALLINN
Flight Number -
Tags generated
Created
Modified
Stats Distance 152 nm / 281 km
Max Altitude 19,700 ft / 6,005 m
Waypoints 3
Social Downloads 17
Likes 0
Share VATSIM

Download

Looking for another format? Having issues loading an existing format? Contact us
Advertisement - Login to hide

Notes

Basic altitude profile: - Ascent Rate: 2500ft/min - Ascent Speed: 250kts - Cruise Altitude: 35000ft - Cruise Speed: 420kts - Descent Rate: 1500ft/min - Descent Speed: 250kts Options: - Use NATs: yes - Use PACOTS: yes - Use low airways: yes - Use high airways: yes

Route

EVRA SOKVA EETN

ID Type Via Altitude Latitude Longitude Leg Dist Tot Dist Heading (true) Name
O EVRA APT - 0 ft / 0 m 56.92366˚ 23.97119˚ - 0 nm - Riga Intl
SOKVA FIX - 19,700 ft / 6,005 m 57.90000˚ 24.29944˚ 59 nm 59 nm 10° / 10° -
O EETN APT - 0 ft / 0 m 59.41326˚ 24.83280˚ 92 nm 151 nm 10° / 11° TALLINN

Altitude Profile

Advertisement - Login to hide

EVRA

Details ICAO EVRA (RIX)
Name Riga Intl
Region Latvia
Timezone Europe/Riga (UTC+2.0)
Stats Elevation 34 ft / 10 m (AMSL)
Location 56.923662° 23.971193°
Runways 1
Magnetic Variation 7.657° E

METAR

EVRA 160850Z 18008KT 0900 R18/1200N PRFG BKN001 OVC005 M01/M01 Q1000 R18/190095 NOSIG

Decode

TAF

TAF EVRA 160803Z 1609/1709 17005KT 3000 BR OVC002 TEMPO 1609/1612 0700 FZFG VV001 BECMG 1612/1614 5000 BR OVC005 TEMPO 1614/1618 0700 FZFG OVC002 BECMG 1618/1620 23005KT 8000 NSW BKN015 BKN020 TEMPO 1620/1709 3000 -SHSNRA SCT007 BKN010CB

Decode

Departure Runways

ID Width Length Bearing (true) Bearing (mag) Surface Threshold Offset Overrun Length
18 148 ft / 45 m 8,358 ft / 2,548 m 185.15° 177.49° Asphalt 0 ft / 0 m 170 ft / 52 m
36 148 ft / 45 m 8,358 ft / 2,548 m 5.14° 357.48° Asphalt 0 ft / 0 m 170 ft / 52 m

EETN

Details ICAO EETN (TLL)
Name TALLINN
Region Estonia
Timezone Europe/Tallinn (UTC+2.0)
Stats Elevation 131 ft / 40 m (AMSL)
Location 59.413257° 24.832803°
Runways 1
Magnetic Variation 8.636° E

METAR

EETN 160850Z 16007KT 6000 -DZ OVC004 01/M00 Q0998 R08/290195 TEMPO 3000 DZ BR

Decode

TAF

TAF AMD EETN 160856Z 1609/1706 17008KT 5000 BR OVC004 TEMPO 1609/1613 1200 DZ BR OVC002 PROB40 TEMPO 1620/1706 0600 FZFG VV001

Decode

Destination Runways

ID Width Length Bearing (true) Bearing (mag) Surface Threshold Offset Overrun Length
08 148 ft / 45 m 10,023 ft / 3,055 m 90.24° 81.60° Asphalt 820 ft / 250 m 0 ft / 0 m
26 148 ft / 45 m 10,023 ft / 3,055 m 270.28° 261.64° Asphalt 0 ft / 0 m 184 ft / 56 m

Approach Navaids

Runway Type Ident Frequency Range Bearing (true) Bearing (mag) Slope Elevation
08 Localiser IIB 111.70 MHz 18 nm / 33 km 90.33° 81.69° - 131 ft / 40 m (AMSL)
08 Glidescope IIB 111.70 MHz 10 nm / 19 km 90.26° 81.62° 3.00° 131 ft / 40 m (AMSL)
26 Localiser ILK 110.30 MHz 18 nm / 33 km 270.24° 261.60° - 131 ft / 40 m (AMSL)
26 Glidescope ILK 110.30 MHz 10 nm / 19 km 270.26° 261.62° 3.00° 131 ft / 40 m (AMSL)

Popular Alternatives